OPS 4682 DEB, 19511

Orbit data source: Space-Track

OPS 4682 DEB, 19511 is space debris in LEO originally from a launch on Sat, 03 Apr 1965 UTC launched from the Air Force Western Test Range (AFWTR). Debris objects in space refer to the collection of defunct objects orbiting the Earth. Examples of debris include non-operational satellites, rocket bodies, and fragments generated from explosions, collisions, or faulty payload assembly.

Loading next visibility...
Identifier
19511, 1965-027AU
Orbit
LEO
Country
Flag of USUS
Related business
Manufacturer
Unknown
Mission
Spacecraft
Bus & Motor
Unknown
Mass
Unknown
Launch date (UTC)
1965-04-03 (61 years ago)
Launch vehicle
Unknown
Launch site
Air Force Western Test Range (AFWTR)
Object type
Payload
Rocket body
Debris
Shape & HBR
Unknown shape, 0.1 m
Radar Cross Section
Small (<0.1 m²)

Expand to show TLE details & history
Last TLE update: 23 hours ago

TLE from 23 hours ago
0 OPS 4682 DEB
1 19511U 65027AU  25340.75978668  .00000442  00000-0  14863-2 0  9991
2 19511  90.2312 354.3853 0031435 202.0727 212.2771 12.97818773776941
Epoch: 2025-12-06T18:14Z
TLE epoch observation values (Epoch: 2025-12-06T18:14:05.569Z)
Latitude
54.24863°
Longitude
4.75965°
Altitude
1,299.983 km
Speed
7.202 km/s
True Right ascension
23h 36m 15s
True Declination
54° 05' 49"
Sunlit
Object was in daylight at epoch
Visualization orbit readout
Latitude
Unknown
Longitude
Unknown
Altitude
Unknown
Speed
Unknown
Apparent Right ascension
Unknown
Apparent Declination
Unknown
Sunlit
N/A
Visualization observer readout
Local Sidereal Time
15:16:26
Azimuth
Unknown
Elevation
Unknown
Doppler factor
Unknown
Orbital elements
Apogee altitude
1,291.81 km
Perigee altitude
1,243.74 km
Semi-major axis
7,645.912 km
Eccentricity
0.00314
Inclination
90.2312°
RAAN
354.3853°
Arg. of periapsis
202.0727°
True anomaly
212.08538°
Mean anomaly
212.2771°
Eccentric anomaly
212.18117°
Mean motion
3.24638 °/min
Orbital period
110.89 mins
BSTAR
0.0014863
Loading maneuver chart data...
Computing Atmospheric mass density...
Loading historical data...
Loading historical data...
Loading historical data...
Loading historical data...
Loading historical data...
Loading historical data...
Loading historical data...

Documentation

Showing up to 5 results
|